Terminal Aerodrome Forecast
Issued by NWS

Home | Current Version | Previous Version | Text Only | Print | Product List | Glossary On
Versions: 1 2 3 4 5 6 7 8 9 10 11 12 13 14 15 16 17 18 19
000
FTUS43 KDLH 260721 AAD
TAFBRD
TAF AMD
KBRD 260721Z 2607/2706 00000KT 2SM BR SKC
      TEMPO 2607/2611 3/4SM BR VV005
     FM261400 15004KT P6SM SKC=

USA.gov is the U.S. government's official web portal to all federal, state and local government web resources and services.